EAG5510 SLCB-SPQU

Flight info

Callsign EAG5510
Flight time 1h 10m
Altitude 36000
Route TEREP DCT GAVAR
Aircraft A319/M-SDE3FGHIRWY/LB1

Departure

Time 2026-04-26 15:19
Airport Jorge Wilsterman International Airport (SLCB)

Arrival

Time 2026-04-26 16:29
Airport Rodríguez Ballón International Airport (SPQU)
Time Latitude Longitude Altitude Speed Heading
2026-04-26 15:04 -17.41459 -66.17966 8362 ft 0 kts 44°
2026-04-26 15:07 -17.41474 -66.17981 8389 ft 2 kts 44°
2026-04-26 15:07 -17.41486 -66.17993 8362 ft 2 kts 46°
2026-04-26 15:07 -17.41497 -66.18006 8362 ft 2 kts 51°
2026-04-26 15:08 -17.41506 -66.18021 8362 ft 2 kts 107°
2026-04-26 15:08 -17.41502 -66.18030 8362 ft 1 kts 134°
2026-04-26 15:08 -17.41501 -66.18030 8362 ft 0 kts 134°
2026-04-26 15:09 -17.41502 -66.18030 8362 ft 1 kts 134°
2026-04-26 15:09 -17.41509 -66.18006 8362 ft 5 kts 104°
2026-04-26 15:10 -17.41518 -66.17966 8362 ft 6 kts 107°
2026-04-26 15:10 -17.41534 -66.17938 8362 ft 7 kts 134°
2026-04-26 15:10 -17.41610 -66.17919 8362 ft 10 kts 178°
2026-04-26 15:10 -17.41682 -66.17927 8361 ft 10 kts 174°
2026-04-26 15:11 -17.41742 -66.17875 8361 ft 12 kts 134°
2026-04-26 15:11 -17.41804 -66.17808 8361 ft 13 kts 131°
2026-04-26 15:11 -17.41867 -66.17733 8361 ft 14 kts 132°
2026-04-26 15:11 -17.41934 -66.17656 8362 ft 15 kts 132°
2026-04-26 15:12 -17.42005 -66.17574 8362 ft 16 kts 132°
2026-04-26 15:12 -17.42081 -66.17484 8362 ft 17 kts 131°
2026-04-26 15:12 -17.42162 -66.17390 8361 ft 18 kts 133°
2026-04-26 15:12 -17.42248 -66.17291 8361 ft 19 kts 132°
2026-04-26 15:13 -17.42341 -66.17184 8361 ft 20 kts 132°
2026-04-26 15:13 -17.42384 -66.17133 8361 ft 2 kts 132°
2026-04-26 15:13 -17.42396 -66.17119 8361 ft 3 kts 132°
2026-04-26 15:13 -17.42414 -66.17098 8361 ft 5 kts 132°
2026-04-26 15:14 -17.42440 -66.17069 8361 ft 6 kts 133°
2026-04-26 15:14 -17.42472 -66.17033 8361 ft 7 kts 133°
2026-04-26 15:14 -17.42509 -66.16990 8361 ft 8 kts 133°
2026-04-26 15:14 -17.42528 -66.16978 8361 ft 1 kts 188°
2026-04-26 15:15 -17.42548 -66.16989 8361 ft 10 kts 208°
2026-04-26 15:15 -17.42626 -66.17048 8360 ft 14 kts 202°
2026-04-26 15:15 -17.42711 -66.17014 8361 ft 14 kts 132°
2026-04-26 15:15 -17.42785 -66.16928 8361 ft 17 kts 132°
2026-04-26 15:16 -17.42864 -66.16836 8362 ft 17 kts 131°
2026-04-26 15:16 -17.42942 -66.16746 8363 ft 17 kts 132°
2026-04-26 15:16 -17.43021 -66.16655 8363 ft 17 kts 132°
2026-04-26 15:16 -17.43103 -66.16560 8363 ft 18 kts 131°
2026-04-26 15:17 -17.43148 -66.16473 8363 ft 11 kts 112°
2026-04-26 15:17 -17.43164 -66.16477 8363 ft 3 kts 271°
2026-04-26 15:17 -17.43126 -66.16532 8363 ft 10 kts 311°
2026-04-26 15:17 -17.43077 -66.16590 8363 ft 11 kts 313°
2026-04-26 15:18 -17.43019 -66.16657 8363 ft 16 kts 312°
2026-04-26 15:18 -17.42787 -66.16925 8361 ft 93 kts 312°
2026-04-26 15:18 -17.42174 -66.17636 8363 ft 166 kts 312°
2026-04-26 15:18 -17.41311 -66.18644 8765 ft 198 kts 312°
2026-04-26 15:19 -17.40416 -66.19755 9772 ft 194 kts 310°
2026-04-26 15:19 -17.39549 -66.20861 10355 ft 204 kts 309°
2026-04-26 15:19 -17.38623 -66.22090 10612 ft 227 kts 303°
2026-04-26 15:19 -17.38255 -66.23755 10842 ft 252 kts 263°
2026-04-26 15:20 -17.38905 -66.25545 11155 ft 278 kts 240°
2026-04-26 15:20 -17.40129 -66.27219 11592 ft 303 kts 226°
2026-04-26 15:20 -17.41737 -66.28772 11946 ft 326 kts 219°
2026-04-26 15:20 -17.43566 -66.30318 12175 ft 350 kts 218°
2026-04-26 15:21 -17.45533 -66.31949 12302 ft 372 kts 218°
2026-04-26 15:21 -17.47574 -66.33692 12665 ft 382 kts 220°
2026-04-26 15:21 -17.49595 -66.35492 13565 ft 381 kts 222°
2026-04-26 15:21 -17.51592 -66.37335 14344 ft 384 kts 223°
2026-04-26 15:22 -17.53583 -66.39218 15009 ft 388 kts 224°
2026-04-26 15:22 -17.55329 -66.41375 15662 ft 391 kts 239°
2026-04-26 15:22 -17.56362 -66.43779 16279 ft 394 kts 253°
2026-04-26 15:22 -17.56774 -66.46618 16944 ft 397 kts 270°
2026-04-26 15:23 -17.56373 -66.49522 17627 ft 401 kts 287°
2026-04-26 15:23 -17.55174 -66.52169 18290 ft 406 kts 304°
2026-04-26 15:23 -17.53284 -66.54373 18909 ft 410 kts 317°
2026-04-26 15:23 -17.51222 -66.56395 19486 ft 413 kts 317°
2026-04-26 15:24 -17.49108 -66.58456 20059 ft 417 kts 317°
2026-04-26 15:24 -17.46975 -66.60530 20628 ft 420 kts 317°
2026-04-26 15:24 -17.44825 -66.62627 21156 ft 424 kts 317°
2026-04-26 15:24 -17.42662 -66.64743 21676 ft 427 kts 317°
2026-04-26 15:25 -17.40481 -66.66881 22172 ft 431 kts 317°
2026-04-26 15:25 -17.39001 -66.68333 22509 ft 433 kts 317°
2026-04-26 15:25 -17.36074 -66.71205 23179 ft 437 kts 317°
2026-04-26 15:25 -17.33849 -66.73389 23652 ft 441 kts 317°
2026-04-26 15:26 -17.31762 -66.75757 24080 ft 445 kts 308°
2026-04-26 15:26 -17.30061 -66.78472 24482 ft 448 kts 298°
2026-04-26 15:26 -17.28808 -66.81468 24883 ft 452 kts 289°
2026-04-26 15:26 -17.27996 -66.84656 25280 ft 455 kts 283°
2026-04-26 15:27 -17.27262 -66.87885 25690 ft 457 kts 284°
2026-04-26 15:27 -17.26515 -66.91131 26098 ft 460 kts 284°
2026-04-26 15:27 -17.25757 -66.94387 26490 ft 462 kts 284°
2026-04-26 15:27 -17.24990 -66.97661 26874 ft 465 kts 284°
2026-04-26 15:28 -17.24218 -67.00957 27251 ft 467 kts 284°
2026-04-26 15:28 -17.23445 -67.04266 27619 ft 469 kts 284°
2026-04-26 15:28 -17.22673 -67.07597 27985 ft 472 kts 283°
2026-04-26 15:28 -17.21899 -67.10942 28351 ft 474 kts 283°
2026-04-26 15:29 -17.21121 -67.14299 28716 ft 477 kts 283°
2026-04-26 15:29 -17.20333 -67.17677 29064 ft 479 kts 283°
2026-04-26 15:29 -17.18751 -67.24457 29999 ft 478 kts 283°
2026-04-26 15:30 -17.17179 -67.31196 30942 ft 475 kts 283°
2026-04-26 15:30 -17.16398 -67.34550 31398 ft 474 kts 284°
2026-04-26 15:30 -17.15619 -67.37893 31861 ft 473 kts 284°
2026-04-26 15:31 -17.14836 -67.41236 32152 ft 473 kts 284°
2026-04-26 15:31 -17.13278 -67.47889 32231 ft 469 kts 284°
2026-04-26 15:32 -17.11216 -67.56690 32218 ft 468 kts 284°
2026-04-26 15:32 -17.09402 -67.64415 32205 ft 468 kts 284°
2026-04-26 15:33 -17.07841 -67.71028 32193 ft 469 kts 284°
2026-04-26 15:33 -17.06275 -67.77648 32181 ft 469 kts 284°
2026-04-26 15:34 -17.04724 -67.84225 32164 ft 469 kts 284°
2026-04-26 15:34 -17.03149 -67.90875 32155 ft 468 kts 284°
2026-04-26 15:35 -17.01599 -67.97442 32142 ft 469 kts 284°
2026-04-26 15:35 -17.00035 -68.04053 32139 ft 469 kts 284°
2026-04-26 15:36 -16.98461 -68.10660 32133 ft 469 kts 284°
2026-04-26 15:36 -16.96881 -68.17269 32129 ft 469 kts 284°
2026-04-26 15:37 -16.95304 -68.23880 32128 ft 469 kts 284°
2026-04-26 15:37 -16.93734 -68.30502 32132 ft 470 kts 284°
2026-04-26 15:38 -16.92152 -68.37123 32130 ft 470 kts 284°
2026-04-26 15:38 -16.90562 -68.43742 32125 ft 470 kts 284°
2026-04-26 15:39 -16.88978 -68.50366 32122 ft 470 kts 284°
2026-04-26 15:39 -16.87923 -68.54794 32122 ft 470 kts 284°
2026-04-26 15:40 -16.85810 -68.63603 32119 ft 470 kts 284°
2026-04-26 15:40 -16.84204 -68.70262 32112 ft 470 kts 284°
2026-04-26 15:41 -16.82608 -68.76832 32112 ft 470 kts 284°
2026-04-26 15:41 -16.81004 -68.83447 32111 ft 470 kts 284°
2026-04-26 15:42 -16.79405 -68.90073 32112 ft 470 kts 284°
2026-04-26 15:42 -16.77809 -68.96697 32113 ft 471 kts 284°
2026-04-26 15:43 -16.76204 -69.03321 32110 ft 471 kts 284°
2026-04-26 15:44 -16.73783 -69.13252 32115 ft 471 kts 284°
2026-04-26 15:44 -16.71363 -69.23186 32119 ft 471 kts 284°
2026-04-26 15:45 -16.69199 -69.32058 32119 ft 472 kts 284°
2026-04-26 15:46 -16.66762 -69.42013 32130 ft 472 kts 284°
2026-04-26 15:46 -16.65410 -69.47526 32139 ft 473 kts 284°
2026-04-26 15:47 -16.62680 -69.58608 32158 ft 473 kts 284°
2026-04-26 15:48 -16.61043 -69.65247 32169 ft 473 kts 284°
2026-04-26 15:48 -16.59407 -69.71885 32182 ft 473 kts 284°
2026-04-26 15:49 -16.57780 -69.78527 32191 ft 473 kts 284°
2026-04-26 15:49 -16.56147 -69.85169 32207 ft 472 kts 285°
2026-04-26 15:50 -16.54501 -69.91787 32215 ft 472 kts 285°
2026-04-26 15:50 -16.52856 -69.98407 32222 ft 472 kts 285°
2026-04-26 15:51 -16.51213 -70.05033 32234 ft 472 kts 285°
2026-04-26 15:51 -16.49571 -70.11660 32245 ft 472 kts 285°
2026-04-26 15:52 -16.47922 -70.18289 32256 ft 473 kts 285°
2026-04-26 15:52 -16.46266 -70.24921 32265 ft 473 kts 285°
2026-04-26 15:53 -16.44613 -70.31550 32271 ft 473 kts 285°
2026-04-26 15:53 -16.42952 -70.38180 32278 ft 473 kts 285°
2026-04-26 15:54 -16.41293 -70.44803 32282 ft 473 kts 285°
2026-04-26 15:54 -16.39625 -70.51428 32281 ft 473 kts 285°
2026-04-26 15:55 -16.37966 -70.58058 32285 ft 473 kts 285°
2026-04-26 15:55 -16.36303 -70.64687 32287 ft 473 kts 285°
2026-04-26 15:56 -16.34633 -70.71317 32297 ft 473 kts 285°
2026-04-26 15:56 -16.32965 -70.77940 32309 ft 473 kts 285°
2026-04-26 15:57 -16.31297 -70.84566 32314 ft 473 kts 285°
2026-04-26 15:57 -16.29620 -70.91186 32324 ft 473 kts 285°
2026-04-26 15:58 -16.27939 -70.97810 32338 ft 473 kts 285°
2026-04-26 15:58 -16.26271 -71.04390 32344 ft 473 kts 285°
2026-04-26 15:59 -16.24588 -71.11012 32352 ft 473 kts 285°
2026-04-26 15:59 -16.22906 -71.17630 32358 ft 473 kts 285°
2026-04-26 16:00 -16.21222 -71.24251 32364 ft 473 kts 285°
2026-04-26 16:00 -16.19529 -71.30914 32366 ft 473 kts 285°
2026-04-26 16:01 -16.17853 -71.37484 32367 ft 473 kts 285°
2026-04-26 16:01 -16.16165 -71.44094 32371 ft 473 kts 285°
2026-04-26 16:02 -16.14473 -71.50707 32362 ft 473 kts 285°
2026-04-26 16:02 -16.12778 -71.57323 32360 ft 473 kts 285°
2026-04-26 16:03 -16.11085 -71.63932 32356 ft 473 kts 285°
2026-04-26 16:03 -16.09383 -71.70532 32341 ft 472 kts 285°
2026-04-26 16:04 -16.07680 -71.77130 32320 ft 472 kts 285°
2026-04-26 16:04 -16.05969 -71.83774 32305 ft 473 kts 285°
2026-04-26 16:05 -16.04265 -71.90376 32294 ft 473 kts 285°
2026-04-26 16:05 -16.02574 -71.96934 32284 ft 473 kts 285°
2026-04-26 16:06 -16.00872 -72.03534 32263 ft 473 kts 285°
2026-04-26 16:06 -15.99154 -72.10135 32255 ft 473 kts 285°
2026-04-26 16:07 -15.97437 -72.16737 32242 ft 473 kts 285°
2026-04-26 16:07 -15.95724 -72.23339 32162 ft 472 kts 285°
2026-04-26 16:07 -15.94867 -72.26617 31373 ft 471 kts 285°
2026-04-26 16:08 -15.94007 -72.29912 30412 ft 474 kts 284°
2026-04-26 16:08 -15.93424 -72.32146 29670 ft 476 kts 284°
2026-04-26 16:08 -15.92273 -72.36564 28166 ft 480 kts 285°
2026-04-26 16:08 -15.91400 -72.39915 27024 ft 482 kts 285°
2026-04-26 16:09 -15.90519 -72.43283 25849 ft 484 kts 285°
2026-04-26 16:09 -15.89638 -72.46665 24669 ft 487 kts 285°
2026-04-26 16:09 -15.88759 -72.50075 23917 ft 489 kts 284°
2026-04-26 16:09 -15.88330 -72.53564 23510 ft 488 kts 270°
2026-04-26 16:10 -15.88716 -72.57049 23245 ft 486 kts 256°
2026-04-26 16:10 -15.89876 -72.60302 22685 ft 479 kts 241°
2026-04-26 16:10 -15.91813 -72.63111 22414 ft 479 kts 227°
2026-04-26 16:10 -15.94379 -72.65372 22152 ft 478 kts 213°
2026-04-26 16:11 -15.97345 -72.66902 21896 ft 476 kts 199°
2026-04-26 16:11 -16.00568 -72.67634 21647 ft 470 kts 185°
2026-04-26 16:11 -16.03743 -72.67538 21383 ft 444 kts 170°
2026-04-26 16:11 -16.06628 -72.66735 21151 ft 420 kts 158°
2026-04-26 16:12 -16.09158 -72.65387 20897 ft 398 kts 146°
2026-04-26 16:12 -16.11257 -72.63630 20662 ft 377 kts 134°
2026-04-26 16:12 -16.14077 -72.59381 20193 ft 342 kts 113°
2026-04-26 16:13 -16.14846 -72.57068 19965 ft 336 kts 103°
2026-04-26 16:13 -16.15219 -72.54695 19745 ft 330 kts 94°
2026-04-26 16:13 -16.15200 -72.52325 19520 ft 325 kts 84°
2026-04-26 16:13 -16.14814 -72.50024 19294 ft 321 kts 77°
2026-04-26 16:14 -16.14329 -72.47769 19071 ft 317 kts 77°
2026-04-26 16:14 -16.13857 -72.45541 18854 ft 314 kts 77°
2026-04-26 16:14 -16.12936 -72.41140 18407 ft 308 kts 77°
2026-04-26 16:15 -16.12486 -72.38972 18152 ft 305 kts 77°
2026-04-26 16:15 -16.12039 -72.36850 17905 ft 303 kts 77°
2026-04-26 16:15 -16.11588 -72.34718 17658 ft 301 kts 77°
2026-04-26 16:16 -16.10685 -72.30470 17156 ft 297 kts 77°
2026-04-26 16:16 -16.10246 -72.28404 16920 ft 296 kts 77°
2026-04-26 16:16 -16.09800 -72.26293 16679 ft 294 kts 77°
2026-04-26 16:16 -16.09369 -72.24244 16436 ft 293 kts 77°
2026-04-26 16:17 -16.08928 -72.22150 16202 ft 292 kts 78°
2026-04-26 16:17 -16.08763 -72.20071 16083 ft 286 kts 90°
2026-04-26 16:17 -16.08874 -72.18043 15957 ft 274 kts 95°
2026-04-26 16:17 -16.09052 -72.16129 15831 ft 259 kts 95°
2026-04-26 16:18 -16.09238 -72.14301 15656 ft 250 kts 96°
2026-04-26 16:18 -16.10196 -72.10978 15298 ft 239 kts 128°
2026-04-26 16:19 -16.12430 -72.08431 14845 ft 240 kts 132°
2026-04-26 16:19 -16.13570 -72.07158 14616 ft 240 kts 132°
2026-04-26 16:19 -16.15482 -72.05028 14237 ft 240 kts 133°
2026-04-26 16:20 -16.16989 -72.03345 13934 ft 240 kts 132°
2026-04-26 16:20 -16.19172 -72.00899 13834 ft 222 kts 133°
2026-04-26 16:20 -16.20223 -71.99724 13845 ft 221 kts 132°
2026-04-26 16:21 -16.21270 -71.98554 13849 ft 221 kts 132°
2026-04-26 16:21 -16.22316 -71.97383 13852 ft 221 kts 132°
2026-04-26 16:21 -16.23023 -71.96590 13842 ft 221 kts 132°
2026-04-26 16:21 -16.24069 -71.95419 13849 ft 221 kts 132°
2026-04-26 16:22 -16.25456 -71.93869 13845 ft 221 kts 132°
2026-04-26 16:22 -16.26164 -71.93077 13853 ft 221 kts 132°
2026-04-26 16:22 -16.27210 -71.91904 13857 ft 221 kts 132°
2026-04-26 16:22 -16.28258 -71.90732 13854 ft 221 kts 132°
2026-04-26 16:23 -16.29305 -71.89563 13871 ft 221 kts 132°
2026-04-26 16:23 -16.30352 -71.88393 13870 ft 221 kts 132°
2026-04-26 16:23 -16.31362 -71.87191 13885 ft 221 kts 125°
2026-04-26 16:23 -16.32119 -71.85805 13898 ft 220 kts 112°
2026-04-26 16:24 -16.32571 -71.84280 13652 ft 222 kts 100°
2026-04-26 16:24 -16.32704 -71.82691 13269 ft 219 kts 92°
2026-04-26 16:24 -16.32780 -71.81119 12928 ft 217 kts 93°
2026-04-26 16:24 -16.32860 -71.79557 12615 ft 215 kts 93°
2026-04-26 16:25 -16.32940 -71.78002 12301 ft 214 kts 93°
2026-04-26 16:25 -16.33020 -71.76455 11987 ft 214 kts 93°
2026-04-26 16:25 -16.33101 -71.74916 11678 ft 213 kts 93°
2026-04-26 16:25 -16.33182 -71.73380 11371 ft 212 kts 93°
2026-04-26 16:26 -16.33264 -71.71847 11067 ft 212 kts 94°
2026-04-26 16:26 -16.33347 -71.70321 10759 ft 211 kts 94°
2026-04-26 16:26 -16.33429 -71.68803 10467 ft 208 kts 94°
2026-04-26 16:26 -16.33506 -71.67374 10330 ft 188 kts 94°
2026-04-26 16:27 -16.33579 -71.66049 10067 ft 178 kts 94°
2026-04-26 16:27 -16.33648 -71.64794 9770 ft 170 kts 94°
2026-04-26 16:27 -16.33707 -71.63577 9386 ft 168 kts 94°
2026-04-26 16:27 -16.33764 -71.62381 9138 ft 166 kts 94°
2026-04-26 16:28 -16.33825 -71.61175 8766 ft 166 kts 94°
2026-04-26 16:28 -16.33896 -71.59972 8624 ft 172 kts 95°
2026-04-26 16:28 -16.33970 -71.58740 8341 ft 167 kts 95°
2026-04-26 16:28 -16.34026 -71.57644 8335 ft 125 kts 94°
2026-04-26 16:29 -16.34060 -71.57057 8372 ft 38 kts 93°
2026-04-26 16:29 -16.34070 -71.56872 8383 ft 22 kts 93°
2026-04-26 16:29 -16.34077 -71.56724 8390 ft 19 kts 93°
2026-04-26 16:29 -16.34084 -71.56597 8396 ft 17 kts 93°
2026-04-26 16:30 -16.34091 -71.56485 8401 ft 14 kts 94°
2026-04-26 16:30 -16.34096 -71.56379 8404 ft 16 kts 92°
2026-04-26 16:30 -16.34103 -71.56236 8409 ft 20 kts 93°
2026-04-26 16:30 -16.34110 -71.56096 8413 ft 19 kts 92°
2026-04-26 16:31 -16.34119 -71.55928 8413 ft 27 kts 93°
2026-04-26 16:31 -16.34128 -71.55759 8413 ft 16 kts 93°
2026-04-26 16:31 -16.34172 -71.55739 8413 ft 9 kts 223°
2026-04-26 16:31 -16.34215 -71.55804 8409 ft 15 kts 240°
2026-04-26 16:32 -16.34272 -71.55905 8396 ft 11 kts 237°
2026-04-26 16:32 -16.34308 -71.55962 8390 ft 17 kts 237°
2026-04-26 16:32 -16.34380 -71.56125 8377 ft 20 kts 268°
2026-04-26 16:32 -16.34373 -71.56271 8363 ft 18 kts 273°
2026-04-26 16:33 -16.34367 -71.56405 8351 ft 19 kts 273°
2026-04-26 16:33 -16.34361 -71.56520 8345 ft 12 kts 272°
2026-04-26 16:33 -16.34357 -71.56594 8345 ft 10 kts 273°
2026-04-26 16:33 -16.34352 -71.56674 8345 ft 12 kts 274°
2026-04-26 16:34 -16.34350 -71.56741 8345 ft 0 kts 272°
2026-04-26 16:34 -16.34351 -71.56744 8345 ft 1 kts 258°
2026-04-26 16:34 -16.34367 -71.56764 8344 ft 5 kts 223°
2026-04-26 16:35 -16.34388 -71.56782 8346 ft 1 kts 219°